[[{"header":{"parameterUnit":"m.s-1","parameterCategory":1,"la1":30.2991,"la2":30.254,"lo1":-89.0895,"lo2":-89.0444,"dy":0.0017,"dx":0.0017,"nx":28,"ny":28,"refTime":"2024-03-22T03:00:00:Z","depth":0,"parameterNumber":2,"parameterNumberName":"U-component_of_WINDS"},"data":[0,0,0,0,0,0,0,0,0,0,0,0,0,0,0,0,0,0,0,0,0,0,0,0,0,0,0,0,0,0,0,0,0,0,0,0,0,0,0,0,0,0,0,0,0,0,0,0,0,0,0,0,0,0,0,0,0,0,-3.5051,-3.5053,0,-3.5174,-3.5175,-3.5177,-3.5173,-3.5171,-3.5169,-3.5168,-3.5293,-3.5297,-3.5302,0,0,0,0,0,0,0,0,0,0,0,0,0,-3.4814,-3.4818,-3.5051,-3.5053,-3.5054,-3.5174,-3.5175,-3.5177,-3.5173,-3.5171,-3.5169,-3.5167,-3.5291,-3.5297,-3.5303,0,0,0,0,0,0,0,0,0,0,0,0,0,-3.4925,-3.482,-3.5051,-3.5067,-3.5069,-3.5173,-3.5175,-3.5177,-3.5173,-3.5171,-3.5168,-3.5166,-3.5289,-3.5296,-3.5304,-3.54,0,0,-3.5326,-3.5329,0,0,0,0,0,0,0,0,-3.4919,-3.4934,-3.5063,-3.5066,-3.5069,-3.5155,-3.5138,-3.5252,-3.5174,-3.5134,-3.5167,-3.5165,-3.5249,-3.526,-3.5288,-3.5406,-3.5411,-3.5327,-3.5331,-3.5334,-3.5336,0,0,0,0,0,0,0,-3.4911,-3.4928,-3.51,-3.5065,-3.5068,-3.5068,-3.5081,-3.5159,-3.5204,-3.5137,-3.5137,-3.5152,-3.525,-3.5281,-3.5291,-3.5413,-3.5327,-3.5333,-3.5338,-3.5341,-3.5616,-3.5619,0,0,0,0,0,0,-3.49,-3.4922,-3.5096,-3.5103,-3.4986,-3.5074,-3.5088,-3.513,-3.5203,-3.5212,-3.5154,-3.5151,-3.527,-3.5282,-3.5295,-3.5412,-3.5334,-3.5341,-3.5345,-3.5613,-3.5617,-3.562,0,0,0,0,0,0,-3.4895,-3.4915,-3.5091,-3.5013,-3.5035,-3.5081,-3.5128,-3.5134,-3.5165,-3.5216,-3.5224,-3.5177,-3.5268,-3.5285,-3.5374,-3.5417,-3.5345,-3.5351,-3.561,-3.5614,-3.5618,-3.5647,0,0,0,0,0,0,-3.4888,-3.4914,-3.495,-3.5014,-3.5039,-3.5167,-3.513,-3.5138,-3.5177,-3.5175,-3.524,-3.5248,-3.5267,-3.5363,-3.5381,-3.5425,-3.5357,-3.5606,-3.5612,-3.5617,-3.5643,-3.5652,-3.566,0,0,0,0,0,-3.4879,-3.4954,-3.4952,-3.4973,-3.5086,-3.517,-3.5184,-3.5205,-3.5181,-3.5218,-3.5251,-3.5246,-3.541,-3.5372,-3.5393,-3.544,-3.5603,-3.561,-3.5616,-3.5639,-3.565,-3.566,0,0,0,0,0,0,-3.4894,-3.4962,-3.4961,-3.5058,-3.5108,-3.5169,-3.5217,-3.5217,-3.5275,-3.527,-3.5294,-3.5309,-3.5397,-3.5428,-3.5385,-3.5537,-3.5503,-3.5514,-3.5513,-3.5525,-3.5533,-3.5523,-3.5363,0,0,0,0,0,-3.4909,-3.4971,-3.5027,-3.5107,-3.5133,-3.5171,-3.5208,-3.522,-3.5272,-3.5293,-3.5333,-3.5384,-3.5447,-3.5488,-3.5549,-3.5648,-3.5662,-3.5691,-3.5699,-3.5706,-3.5715,-3.5769,-3.5782,-3.5641,-3.5641,-3.5641,0,0,-3.4939,-3.4984,-3.5022,-3.5111,-3.5152,-3.5215,-3.5188,-3.5257,-3.5304,-3.5304,-3.539,-3.5421,-3.548,-3.5574,-3.5618,-3.5602,-3.5757,-3.5715,-3.572,-3.5725,-3.5777,-3.579,-3.5802,-3.5646,-3.5645,-3.5644,0,0,-3.5027,-3.5068,-3.5139,-3.518,-3.5241,-3.5266,-3.5283,-3.5344,-3.5365,-3.5452,-3.5453,-3.551,-3.5618,-3.566,-3.5695,-3.58,-3.5797,-3.582,-3.5864,-3.5917,-3.5928,-3.5938,-3.5974,-3.5987,-3.5828,-3.5828,-3.5828,0,-3.5057,-3.5153,-3.5175,-3.5244,-3.5283,-3.5287,-3.5358,-3.5397,-3.5475,-3.5502,-3.5484,-3.562,-3.566,-3.5764,-3.5789,-3.5819,-3.5838,-3.5811,-3.5924,-3.5935,-3.5944,-3.5979,-3.5993,-3.5831,-3.583,-3.583,-3.583,0,-3.5186,-3.5253,-3.5303,-3.5378,-3.5423,-3.5493,-3.5526,-3.5569,-3.5578,-3.5605,-3.5693,-3.5742,-3.5812,-3.5838,-3.5847,-3.5944,-3.5932,-3.5919,-3.5885,-3.5959,-3.5992,-3.6006,-3.5834,-3.5833,-3.5832,-3.5832,0,0,-3.5284,-3.5372,-3.539,-3.5424,-3.5492,-3.5544,-3.5615,-3.5684,-3.572,-3.5774,-3.5833,-3.5926,-3.5914,-3.5954,-3.5969,-3.6015,-3.6094,-3.5996,-3.5998,-3.6011,-3.6202,-3.6209,-3.6224,-3.6093,-3.6096,-3.6098,-3.6196,0,-3.5378,-3.5502,-3.5525,-3.5634,-3.5695,-3.57,-3.5762,-3.581,-3.5838,-3.5894,-3.5925,-3.5989,-3.597,-3.5994,-3.6041,-3.6074,-3.6132,-3.6068,-3.6147,-3.615,-3.613,-3.6242,-3.625,-3.634,-3.6209,-3.6212,-3.6213,0,-3.5503,-3.556,-3.5675,-3.5735,-3.5762,-3.5817,-3.5882,-3.5936,-3.5992,-3.6009,-3.6054,-3.6063,-3.6137,-3.6102,-3.6203,-3.6159,-3.6193,-3.6215,-3.6219,-3.6225,-3.6184,-3.625,-3.637,-3.6383,-3.6234,-3.6232,-3.6231,0,-3.5561,-3.5667,-3.575,-3.5779,-3.5852,-3.589,-3.5922,-3.5975,-3.6015,-3.6073,-3.6099,-3.6165,-3.62,-3.625,-3.6277,-3.6249,-3.6376,-3.6343,-3.6391,-3.6391,-3.6416,-3.6413,-3.6541,-3.6442,-3.6441,-3.6441,-3.6441,0,-3.5662,-3.5731,-3.5776,-3.5827,-3.5905,-3.5931,-3.6008,-3.6039,-3.6087,-3.6144,-3.6153,-3.6206,-3.6239,-3.6297,-3.6318,-3.6398,-3.6415,-3.643,-3.6434,-3.6428,-3.6426,-3.6449,-3.6442,-3.6445,-3.6444,-3.6443,-3.6443,0,-3.5739,-3.5772,-3.5862,-3.5924,-3.5941,-3.5996,-3.6049,-3.6098,-3.6126,-3.6198,-3.6216,-3.626,-3.6329,-3.6361,-3.6446,-3.6461,-3.6551,-3.6552,-3.6532,-3.6533,-3.6578,-3.6573,-3.6724,-3.6745,-3.6633,-3.6634,-3.6635,0,-3.58,-3.5854,-3.5921,-3.596,-3.5993,-3.6055,-3.6096,-3.6125,-3.6167,-3.6235,-3.6276,-3.6345,-3.6401,-3.6511,-3.655,-3.6616,-3.6617,-3.6666,-3.6627,-3.6619,-3.6616,-3.6611,-3.6616,-3.6672,-3.6673,-3.6674,-3.6675,0,-3.5904,-3.5918,-3.5977,-3.6042,-3.6091,-3.6143,-3.6195,-3.6226,-3.6262,-3.631,-3.638,-3.6424,-3.6511,-3.6579,-3.6647,-3.668,-3.6683,-3.6687,-3.6701,-3.6694,-3.6679,-3.6686,-3.6549,-3.6683,-3.6682,-3.6681,-3.6681,-3.6681,-3.5974,-3.6022,-3.6077,-3.6142,-3.6184,-3.6232,-3.6281,-3.6316,-3.6375,-3.6447,-3.6461,-3.6535,-3.659,-3.6682,-3.6718,-3.6777,-3.6765,-3.6786,-3.6791,-3.6795,-3.6797,-3.6672,-3.6789,-3.6789,-3.6789,-3.6789,-3.6789,0,-3.6077,-3.6113,-3.6173,-3.6245,-3.6296,-3.6296,-3.6353,-3.6396,-3.6461,-3.6512,-3.6568,-3.6648,-3.6715,-3.676,-3.6828,-3.6866,-3.6869,-3.6883,-3.6879,-3.6886,-3.6804,-3.6784,-3.6879,-3.6879,-3.6879,-3.6879,-3.6879,-3.6879,-3.6137,-3.6217,-3.6238,-3.6339,-3.6375,-3.6447,-3.648,-3.6524,-3.6565,-3.6655,-3.671,-3.6739,-3.6788,-3.6859,-3.692,-3.6932,-3.6956,-3.6969,-3.698,-3.6902,-3.6892,-3.6883,-3.6864,-3.6975,-3.6975,-3.7058,-3.7058,-3.7059]},{"header":{"parameterUnit":"m.s-1","parameterCategory":1,"la1":30.2991,"la2":30.254,"lo1":-89.0895,"lo2":-89.0444,"dy":0.0017,"dx":0.0017,"nx":28,"ny":28,"refTime":"2024-03-22T03:00:00:Z","depth":0,"parameterNumber":3,"parameterNumberName":"V-component_of_WINDS"},"data":[0,0,0,0,0,0,0,0,0,0,0,0,0,0,0,0,0,0,0,0,0,0,0,0,0,0,0,0,0,0,0,0,0,0,0,0,0,0,0,0,0,0,0,0,0,0,0,0,0,0,0,0,0,0,0,0,0,0,1.479,1.4791,0,1.4825,1.4825,1.4826,1.4807,1.4806,1.4805,1.4804,1.484,1.4842,1.4843,0,0,0,0,0,0,0,0,0,0,0,0,0,1.4709,1.471,1.479,1.4791,1.4791,1.4825,1.4825,1.4826,1.4807,1.4806,1.4805,1.4804,1.4839,1.4841,1.4844,0,0,0,0,0,0,0,0,0,0,0,0,0,1.4744,1.4711,1.479,1.4786,1.4786,1.4825,1.4825,1.4826,1.4807,1.4806,1.4805,1.4803,1.4839,1.4841,1.4844,1.4889,0,0,1.4852,1.4853,0,0,0,0,0,0,0,0,1.4742,1.4747,1.4786,1.4786,1.4786,1.481,1.481,1.4847,1.4808,1.4799,1.4804,1.4803,1.4831,1.4834,1.4844,1.4891,1.4892,1.4853,1.4854,1.4855,1.4856,0,0,0,0,0,0,0,1.474,1.4745,1.4804,1.4787,1.4787,1.4783,1.4786,1.4817,1.4823,1.48,1.4799,1.4803,1.4831,1.4841,1.4845,1.4893,1.4852,1.4855,1.4857,1.4858,1.498,1.4981,0,0,0,0,0,0,1.4737,1.4744,1.4803,1.4805,1.476,1.4785,1.4789,1.4804,1.4822,1.4824,1.4804,1.4802,1.4837,1.4842,1.4846,1.4901,1.4855,1.4858,1.486,1.4978,1.498,1.4982,0,0,0,0,0,0,1.4736,1.4743,1.4802,1.4774,1.4781,1.4788,1.4805,1.4805,1.4816,1.4826,1.4827,1.4814,1.4837,1.4842,1.4879,1.4902,1.4859,1.4862,1.4976,1.4979,1.4981,1.5011,0,0,0,0,0,0,1.4733,1.4742,1.4759,1.4775,1.4783,1.4834,1.4807,1.4807,1.4821,1.4818,1.4835,1.4836,1.4836,1.4875,1.4882,1.4905,1.4864,1.4974,1.4977,1.498,1.5008,1.5014,1.502,0,0,0,0,0,1.4731,1.4766,1.476,1.4768,1.4804,1.4835,1.484,1.4839,1.4823,1.484,1.4846,1.4836,1.4898,1.4879,1.4886,1.4911,1.4973,1.4976,1.498,1.5006,1.5013,1.502,0,0,0,0,0,0,1.4754,1.4768,1.4762,1.4803,1.4818,1.4832,1.4854,1.4846,1.4866,1.4863,1.4861,1.4865,1.4903,1.491,1.4888,1.4956,1.4933,1.4938,1.495,1.4957,1.4963,1.4961,1.4866,0,0,0,0,0,1.4764,1.4788,1.4799,1.4835,1.4842,1.4847,1.486,1.4858,1.4873,1.488,1.4889,1.4904,1.4927,1.4942,1.4964,1.5009,1.5013,1.503,1.5035,1.504,1.5045,1.507,1.5078,1.4994,1.4994,1.4994,0,0,1.4785,1.4795,1.4811,1.484,1.4851,1.4876,1.4852,1.488,1.4899,1.4884,1.4919,1.4927,1.4943,1.4985,1.5003,1.4992,1.5069,1.5045,1.5048,1.5051,1.5075,1.5083,1.509,1.4996,1.4996,1.4995,0,0,1.4836,1.4846,1.4877,1.4889,1.4906,1.4909,1.4917,1.4932,1.4936,1.4972,1.4962,1.4984,1.5024,1.5037,1.5048,1.5105,1.5096,1.5112,1.5142,1.5167,1.5174,1.518,1.5201,1.5209,1.5117,1.5117,1.5117,0,1.486,1.4897,1.4894,1.4923,1.4937,1.4924,1.4957,1.4968,1.4992,1.5001,1.4988,1.5039,1.5049,1.5094,1.5108,1.5117,1.5127,1.5111,1.5173,1.5179,1.5185,1.5205,1.5213,1.5119,1.5118,1.5118,1.5118,0,1.4926,1.4952,1.4976,1.4999,1.5015,1.5045,1.5048,1.5064,1.5061,1.5065,1.5102,1.5114,1.5139,1.5149,1.5145,1.5194,1.5186,1.5173,1.515,1.5195,1.5214,1.5221,1.5121,1.5121,1.512,1.512,0,0,1.4994,1.5015,1.5024,1.5035,1.5053,1.5074,1.5103,1.5128,1.5142,1.5159,1.5185,1.5219,1.5207,1.522,1.5218,1.524,1.5286,1.5224,1.5225,1.5237,1.5341,1.5352,1.5361,1.528,1.5281,1.5282,1.534,0,1.5047,1.5099,1.5098,1.5147,1.5172,1.516,1.5186,1.5201,1.5206,1.5228,1.5233,1.5258,1.524,1.5248,1.5269,1.5276,1.5307,1.5271,1.5304,1.5306,1.5302,1.537,1.5382,1.5435,1.5347,1.5349,1.5349,0,1.5116,1.5136,1.5187,1.5203,1.5213,1.5236,1.5259,1.528,1.5296,1.5298,1.5313,1.5308,1.5339,1.5314,1.5358,1.5334,1.5347,1.5352,1.5354,1.5358,1.5331,1.5377,1.5452,1.5461,1.5361,1.536,1.5359,0,1.5162,1.5201,1.5237,1.5246,1.5265,1.5282,1.529,1.5305,1.532,1.534,1.535,1.5372,1.5385,1.5403,1.5405,1.5386,1.5449,1.5424,1.5452,1.5452,1.5467,1.5466,1.5546,1.5473,1.5473,1.5473,1.5473,0,1.5223,1.5255,1.5258,1.528,1.5316,1.5314,1.535,1.5357,1.537,1.5394,1.5386,1.5408,1.5408,1.5431,1.5432,1.5469,1.5474,1.5477,1.5478,1.5479,1.5479,1.5489,1.5485,1.5475,1.5475,1.5474,1.5474,0,1.528,1.5283,1.5322,1.5336,1.5341,1.5367,1.538,1.5401,1.5405,1.5436,1.5443,1.5449,1.5476,1.5479,1.551,1.5511,1.5555,1.5551,1.555,1.555,1.5579,1.5576,1.5669,1.5681,1.5599,1.56,1.56,0,1.5319,1.5344,1.5361,1.5377,1.5386,1.5411,1.5426,1.5425,1.5441,1.5462,1.5482,1.5508,1.5529,1.5572,1.558,1.5604,1.5601,1.5632,1.5605,1.5606,1.5603,1.5602,1.5605,1.5638,1.5638,1.5639,1.564,0,1.5389,1.539,1.5412,1.5435,1.5453,1.5471,1.5488,1.5501,1.5502,1.5521,1.5549,1.5565,1.5597,1.5624,1.5647,1.5657,1.5649,1.5648,1.5656,1.5659,1.5658,1.566,1.5566,1.5646,1.5646,1.5645,1.5645,1.5644,1.544,1.5462,1.5477,1.5502,1.5515,1.5531,1.5552,1.5559,1.5582,1.5608,1.5606,1.5637,1.5653,1.5684,1.5695,1.572,1.571,1.5721,1.5724,1.5727,1.5731,1.5653,1.5724,1.5724,1.5724,1.5723,1.5723,0,1.551,1.552,1.5543,1.5567,1.5587,1.5577,1.5596,1.5613,1.564,1.5656,1.5677,1.5709,1.5735,1.5745,1.577,1.5788,1.5785,1.5794,1.5794,1.5796,1.5738,1.5729,1.5796,1.5796,1.5796,1.5796,1.5796,1.5796,1.555,1.5586,1.5589,1.5632,1.5641,1.5671,1.5682,1.5697,1.571,1.5746,1.5768,1.5774,1.5787,1.5814,1.5837,1.5839,1.585,1.5861,1.5862,1.5808,1.58,1.5793,1.5785,1.5863,1.5863,1.5919,1.5919,1.592]}]]